Weather History for Frederick, OK

Change the Weather History Date:

Sunday, November 25, 2012

  Actual Average (KLTS) Record (KLTS)
Temperature  
Mean Temperature 53 °F -  
Max Temperature 70 °F 55 °F 75 °F (1997)
Min Temperature 36 °F 34 °F 23 °F (1996)
Degree Days  
Heating Degree Days 12    
Growing Degree Days 3 (Base 50)    
Moisture  
Dew Point 28 °F    
Average Humidity 42    
Maximum Humidity 59    
Minimum Humidity 23    
Precipitation  
Precipitation 0.00 in - - ()
Sea Level Pressure  
Sea Level Pressure 29.82 in    
Wind  
Wind Speed 8 mph (South)    
Max Wind Speed 15 mph    
Max Gust Speed 20 mph    
Visibility 10 miles    
Events      
Averages and records for this station are not official NWS values.
T = Trace of Precipitation, MM = Missing Value Source: NWS Daily Summary

Daily Weather History Graph

Daily Weather History Graph

Search for Another Location

Airport:

Trip Planner

Search our weather history database for the weather conditions in past years. The results will help you decide how hot, cold, wet, or windy it might be!

Date:

Astronomy

Nov. 25, 2012 Rise Set
Actual Time 7:19 AM CST 5:26 PM CST
Civil Twilight 6:51 AM CST 5:54 PM CST
Nautical Twilight 6:21 AM CST 6:24 PM CST
Astronomical Twilight 5:50 AM CST 6:55 PM CST
Moon 3:40 PM CST (11/25) 4:39 AM CST (11/25)
Length of Visible Light 11h 02m
Length of Day
10h 07m
Waxing Gibbous, 93% of the Moon is Illuminated
Nov 25
Waxing Gibbous
Nov 28
Full
Dec 6
Last Quarter
Dec 13
New
Dec 19
First Quarter

Hourly Weather History & Observations

Time (CST) Temp. Windchill Dew Point Humidity Pressure Visibility Wind Dir Wind Speed Gust Speed Precip Events Conditions
12:53 AM 41.0 °F 37.1 °F 19.9 °F 43% 29.94 in 10.0 mi SE 5.8 mph - N/A   Clear
1:53 AM 41.0 °F 37.1 °F 21.0 °F 45% 29.91 in 10.0 mi SE 5.8 mph - N/A   Clear
2:53 AM 39.9 °F 34.5 °F 21.0 °F 47% 29.90 in 10.0 mi SE 8.1 mph - N/A   Clear
3:53 AM 39.0 °F 33.4 °F 21.0 °F 49% 29.88 in 10.0 mi SE 8.1 mph - N/A   Clear
4:53 AM 37.0 °F 31.0 °F 19.9 °F 50% 29.87 in 10.0 mi East 8.1 mph - N/A   Clear
6:53 AM 36.0 °F 29.6 °F 21.9 °F 57% 29.86 in 10.0 mi ESE 8.1 mph - N/A   Clear
7:53 AM 37.0 °F 31.6 °F 24.1 °F 59% 29.87 in 10.0 mi ESE 6.9 mph - N/A   Clear
8:53 AM 48.9 °F - 30.9 °F 50% 29.86 in 10.0 mi South 9.2 mph - N/A   Clear
9:53 AM 55.9 °F - 35.1 °F 45% 29.85 in 10.0 mi SSW 15.0 mph 19.6 mph N/A   Clear
10:53 AM 60.1 °F - 34.0 °F 38% 29.84 in 10.0 mi WSW 8.1 mph - N/A   Clear
11:53 AM 64.0 °F - 33.1 °F 31% 29.82 in 10.0 mi SW 13.8 mph - N/A   Clear
12:53 PM 66.0 °F - 30.9 °F 27% 29.79 in 10.0 mi SW 12.7 mph - N/A   Clear
1:53 PM 68.0 °F - 30.9 °F 25% 29.77 in 10.0 mi WSW 8.1 mph - N/A   Clear
2:53 PM 69.1 °F - 30.0 °F 23% 29.76 in 10.0 mi WSW 9.2 mph - N/A   Clear
3:53 PM 70.0 °F - 30.0 °F 23% 29.76 in 10.0 mi WSW 8.1 mph - N/A   Clear
4:53 PM 68.0 °F - 28.9 °F 23% 29.76 in 10.0 mi NW 5.8 mph - N/A   Clear
5:53 PM 57.0 °F - 27.0 °F 32% 29.77 in 10.0 mi NNW 9.2 mph - N/A   Clear
6:53 PM 53.1 °F - 28.9 °F 40% 29.78 in 10.0 mi North 11.5 mph - N/A   Clear
7:53 PM 52.0 °F - 30.9 °F 45% 29.78 in 10.0 mi North 11.5 mph - N/A   Clear
8:53 PM 48.0 °F - 30.9 °F 52% 29.79 in 10.0 mi NNE 9.2 mph - N/A   Clear
9:53 PM 48.0 °F - 30.9 °F 52% 29.77 in 10.0 mi NNE 11.5 mph - N/A   Clear
10:53 PM 46.9 °F - 30.0 °F 52% 29.77 in 10.0 mi North 10.4 mph - N/A   Clear
11:53 PM 44.1 °F 38.6 °F 28.9 °F 55% 29.78 in 10.0 mi North 10.4 mph - N/A   Clear